This is the latest recevied weather packets stored in our database for station/object VK4AB-13. If no packets are shown the sender has not sent any weather packets the latest 10 day(s).
| Time | Temp. | Humidity | Pressure | Rain* | Wind** | Luminosity | Snow |
|---|---|---|---|---|---|---|---|
| 1778275420 | 9.44° C | 79% | 1022.1 hPa | 0 mm | - | 97 W/m² | - |
| 1778275120 | 8.89° C | 80% | 1022.1 hPa | 0 mm | - | 83 W/m² | - |
| 1778274820 | 8.89° C | 80% | 1022.1 hPa | 0 mm | - | 98 W/m² | - |
| 1778274520 | 8.89° C | 80% | 1022.1 hPa | 0 mm | - | 105 W/m² | - |
| 1778274220 | 8.89° C | 81% | 1022 hPa | 0 mm | - | 77 W/m² | - |
| 1778273920 | 8.89° C | 80% | 1021.9 hPa | 0 mm | - | 47 W/m² | - |
| 1778273620 | 8.33° C | 80% | 1021.9 hPa | 0 mm | - | 37 W/m² | - |
| 1778273320 | 8.33° C | 80% | 1021.8 hPa | 0 mm | - | 28 W/m² | - |
| 1778273020 | 8.33° C | 80% | 1021.7 hPa | 0 mm | - | 21 W/m² | - |
| 1778272720 | 8.33° C | 79% | 1021.8 hPa | 0 mm | - | 16 W/m² | - |
| 1778272420 | 8.33° C | 80% | 1021.7 hPa | 0 mm | - | 11 W/m² | - |
| 1778272120 | 8.89° C | 79% | 1021.6 hPa | 0 mm | - | 7 W/m² | - |
| 1778271820 | 8.89° C | 79% | 1021.6 hPa | 0 mm | - | 0 W/m² | - |
| 1778271520 | 8.89° C | 79% | 1021.6 hPa | 0 mm | - | 0 W/m² | - |
| 1778271220 | 8.89° C | 79% | 1021.5 hPa | 0 mm | - | 0 W/m² | - |
| 1778270920 | 8.89° C | 79% | 1021.4 hPa | 0 mm | - | 0 W/m² | - |
| 1778270620 | 8.89° C | 78% | 1021.1 hPa | 0 mm | - | 0 W/m² | - |
| 1778270320 | 8.89° C | 78% | 1021.2 hPa | 0 mm | - | 0 W/m² | - |
| 1778270020 | 8.89° C | 78% | 1021.1 hPa | 0 mm | - | 0 W/m² | - |
| 1778269720 | 8.89° C | 78% | 1021.1 hPa | 0 mm | - | 0 W/m² | - |
| 1778269420 | 8.89° C | 78% | 1021 hPa | 0 mm | - | 0 W/m² | - |
| 1778269120 | 8.89° C | 77% | 1020.9 hPa | 0 mm | - | 0 W/m² | - |
| 1778268820 | 8.89° C | 77% | 1020.8 hPa | 0 mm | - | 0 W/m² | - |
| 1778268520 | 8.89° C | 77% | 1020.8 hPa | 0 mm | - | 0 W/m² | - |
| 1778268220 | 8.89° C | 76% | 1020.7 hPa | 0 mm | - | 0 W/m² | - |
* Rain latest hour (hover to see other rain measurements)
** Current wind speed in m/s (hover to see current wind gust speed)